Weather History for Milwaukee Timmerman, WI

Change the Weather History Date:

Saturday, May 4, 2013

  Actual Average Record
Temperature  
Mean Temperature 54 °F -  
Max Temperature 66 °F 64 °F 90 °F (1952)
Min Temperature 42 °F 43 °F 29 °F (1954)
Degree Days  
Heating Degree Days 11    
Growing Degree Days 4 (Base 50)    
Moisture  
Dew Point 40 °F    
Average Humidity 71    
Maximum Humidity 87    
Minimum Humidity 45    
Precipitation  
Precipitation 0.00 in - - ()
Sea Level Pressure  
Sea Level Pressure 30.04 in    
Wind  
Wind Speed 6 mph (NE)    
Max Wind Speed 12 mph    
Max Gust Speed 20 mph    
Visibility 10 miles    
Events      
Averages and records for this station are not official NWS values.
T = Trace of Precipitation, MM = Missing Value Source: NWS Daily Summary

Daily Weather History Graph

Daily Weather History Graph

Search for Another Location

Airport:

Trip Planner

Search our weather history database for the weather conditions in past years. The results will help you decide how hot, cold, wet, or windy it might be!

Date:

Astronomy

May. 04, 2013 Rise Set
Actual Time 5:41 AM CDT 7:57 PM CDT
Civil Twilight 5:09 AM CDT 8:28 PM CDT
Nautical Twilight 4:31 AM CDT 9:07 PM CDT
Astronomical Twilight 3:48 AM CDT 9:51 PM CDT
Moon 2:48 AM CDT (5/4) 2:47 PM CDT (5/4)
Length of Visible Light 15h 18m
Length of Day
14h 15m
Waning Crescent, 27% of the Moon is Illuminated
May 4
Waning Crescent
May 9
New
May 17
First Quarter
May 24
Full
May 31
Last Quarter

Hourly Weather History & Observations

Time (CDT) Temp. Windchill Dew Point Humidity Pressure Visibility Wind Dir Wind Speed Gust Speed Precip Events Conditions
12:15 AM 44.6 °F 38.8 °F 37.4 °F 76% 30.03 in 10.0 mi NE 11.5 mph 16.1 mph N/A   Scattered Clouds
12:35 AM 44.6 °F 39.2 °F 37.4 °F 76% 30.04 in 10.0 mi NE 10.4 mph 19.6 mph N/A   Overcast
12:55 AM 44.6 °F 42.2 °F 37.4 °F 76% 30.03 in 10.0 mi NE 4.6 mph - N/A   Drizzle
1:15 AM 44.6 °F 42.2 °F 39.2 °F 81% 30.02 in 10.0 mi NNE 4.6 mph - N/A   Overcast
1:35 AM 44.6 °F 42.2 °F 41.0 °F 87% 30.02 in 10.0 mi NE 4.6 mph - N/A   Mostly Cloudy
1:55 AM 44.6 °F 40.2 °F 41.0 °F 87% 30.01 in 10.0 mi NE 8.1 mph - N/A   Overcast
2:15 AM 44.6 °F 40.7 °F 41.0 °F 87% 30.01 in 10.0 mi NNE 6.9 mph - N/A   Overcast
2:35 AM 44.6 °F 40.2 °F 41.0 °F 87% 30.01 in 10.0 mi NNE 8.1 mph - N/A   Overcast
2:55 AM 44.6 °F 40.2 °F 41.0 °F 87% 30.01 in 10.0 mi NE 8.1 mph - N/A   Mostly Cloudy
3:15 AM 46.4 °F 43.5 °F 39.2 °F 76% 30.01 in 10.0 mi NE 5.8 mph - N/A   Overcast
3:35 AM 44.6 °F 41.4 °F 39.2 °F 81% 30.01 in 10.0 mi NE 5.8 mph - N/A   Mostly Cloudy
3:55 AM 44.6 °F 41.4 °F 39.2 °F 81% 30.01 in 10.0 mi NE 5.8 mph - N/A   Scattered Clouds
4:15 AM 44.6 °F 40.7 °F 37.4 °F 76% 30.01 in 10.0 mi NE 6.9 mph - N/A   Clear
4:35 AM 44.6 °F 41.4 °F 37.4 °F 76% 30.02 in 10.0 mi NE 5.8 mph - N/A   Clear
4:55 AM 44.6 °F 42.2 °F 37.4 °F 76% 30.01 in 10.0 mi NE 4.6 mph - N/A   Clear
5:15 AM 44.6 °F 42.2 °F 37.4 °F 76% 30.02 in 10.0 mi NE 4.6 mph - N/A   Clear
5:35 AM 42.8 °F 40.1 °F 37.4 °F 81% 30.02 in 10.0 mi NE 4.6 mph - N/A   Clear
5:55 AM 42.8 °F 40.1 °F 37.4 °F 81% 30.03 in 10.0 mi NE 4.6 mph - N/A   Clear
6:15 AM 42.8 °F 40.1 °F 37.4 °F 81% 30.03 in 10.0 mi NE 4.6 mph - N/A   Clear
6:35 AM 44.6 °F 42.2 °F 37.4 °F 76% 30.03 in 10.0 mi NE 4.6 mph - N/A   Clear
6:55 AM 44.6 °F 42.2 °F 37.4 °F 76% 30.04 in 10.0 mi NE 4.6 mph - N/A   Mostly Cloudy
7:45 AM 44.6 °F 43.1 °F 39.2 °F 81% 30.03 in 10.0 mi NE 3.5 mph - N/A   Clear
8:45 AM 50.0 °F - 41.0 °F 71% 30.05 in 10.0 mi NNE 4.6 mph - N/A   Scattered Clouds
9:45 AM 53.6 °F - 41.0 °F 62% 30.06 in 10.0 mi NE 6.9 mph - N/A   Scattered Clouds
10:45 AM 53.6 °F - 42.8 °F 67% 30.06 in 10.0 mi NNE 5.8 mph - N/A   Clear
11:50 AM 57.2 °F - 42.8 °F 59% 30.06 in 10.0 mi East 5.8 mph - N/A   Scattered Clouds
12:45 PM 62.6 °F - 42.8 °F 48% 30.05 in - East 9.2 mph - N/A   Clear
1:45 PM 62.6 °F - 42.8 °F 48% 30.04 in 10.0 mi East 9.2 mph - N/A   Clear
2:45 PM 62.6 °F - 42.8 °F 48% 30.04 in 10.0 mi East 6.9 mph - N/A   Clear
3:45 PM 64.4 °F - 42.8 °F 45% 30.03 in 10.0 mi East 6.9 mph - N/A   Clear
5:45 PM 66.2 °F - 44.6 °F 46% 30.03 in 10.0 mi ENE 6.9 mph - N/A   Clear
6:45 PM 57.2 °F - 42.8 °F 59% 30.04 in 10.0 mi NE 8.1 mph - N/A   Clear
7:45 PM 55.4 °F - 41.0 °F 58% 30.06 in 10.0 mi ENE 6.9 mph - N/A   Clear
8:45 PM 53.6 °F - 41.0 °F 62% 30.06 in 10.0 mi ENE 4.6 mph - N/A   Clear
9:15 PM 51.8 °F - 41.0 °F 67% 30.07 in 10.0 mi Calm Calm - N/A   Clear
9:35 PM 51.8 °F - 41.0 °F 67% 30.07 in 10.0 mi Calm Calm - N/A   Clear
9:55 PM 50.0 °F - 41.0 °F 71% 30.07 in 10.0 mi Calm Calm - N/A   Clear
10:15 PM 50.0 °F - 41.0 °F 71% 30.07 in 10.0 mi Calm Calm - N/A   Clear
10:35 PM 50.0 °F - 41.0 °F 71% 30.06 in 10.0 mi Calm Calm - N/A   Clear
10:55 PM 50.0 °F - 41.0 °F 71% 30.06 in 10.0 mi Calm Calm - N/A   Clear
11:15 PM 50.0 °F - 41.0 °F 71% 30.06 in 10.0 mi Calm Calm - N/A   Clear
11:35 PM 51.8 °F - 41.0 °F 67% 30.06 in 10.0 mi Calm Calm - N/A   Clear
11:55 PM 50.0 °F - 41.0 °F 71% 30.06 in 10.0 mi NE 3.5 mph - N/A   Clear